Location: 22
(39.7117°N, 89.5929°W)
Time: 00:13:38
(UTC-06:00)

Vanguard 2 Rocket - All Passes

Search period start: 06 February 2023 00:00
Search period end: 16 February 2023 00:00
Orbit: 556 x 3318 km, 32.9° (Epoch: 05 February)

Date Brightness Start Highest point End Pass type
(mag) Time Alt. Az. Time Alt. Az. Time Alt. Az.
06 Feb - 07:47:37 10° SSW 07:53:18 20° SSE 07:57:26 10° ESE daylight
06 Feb - 10:00:59 10° WSW 10:06:12 33° S 10:10:01 10° ESE daylight
06 Feb - 12:14:45 10° WSW 12:18:26 29° S 12:21:54 10° SE daylight
06 Feb - 14:29:10 10° SW 14:30:38 12° SSW 14:32:12 10° S daylight
07 Feb - 06:46:55 10° SSW 06:52:45 17° SSE 06:57:06 10° ESE daylight
07 Feb - 08:59:49 10° SW 09:06:05 32° S 09:10:20 10° ESE daylight
07 Feb - 11:14:06 10° WSW 11:18:33 34° S 11:22:11 10° ESE daylight
07 Feb - 13:28:08 10° WSW 13:30:38 16° SSW 13:33:14 10° SSE daylight
08 Feb - 05:46:41 10° S 05:51:56 14° SSE 05:56:07 10° SE visible
08 Feb - 07:58:26 10° SW 08:05:47 29° SSE 08:10:36 10° ESE daylight
08 Feb - 10:13:04 10° WSW 10:18:36 38° S 10:22:33 10° ESE daylight
08 Feb - 12:27:23 10° WSW 12:30:44 22° SSW 12:33:53 10° SE daylight
09 Feb - 04:48:00 10° SSE 04:50:53 11° SSE 04:53:27 10° SE visible
09 Feb - 06:56:58 10° SW 07:05:14 26° SSE 07:10:40 10° ESE daylight
09 Feb - 09:11:38 10° WSW 09:18:30 40° S 09:22:58 10° ESE daylight
09 Feb - 11:26:30 10° WSW 11:30:53 30° SSW 11:34:25 10° SE daylight
10 Feb - 05:55:36 10° SSW 06:04:24 23° SSE 06:10:26 10° ESE visible
10 Feb - 08:09:52 10° SW 08:18:12 39° S 08:23:20 10° ESE daylight
10 Feb - 10:25:17 10° WSW 10:30:57 39° S 10:34:57 10° ESE daylight
10 Feb - 12:40:24 10° WSW 12:42:56 15° SSW 12:45:19 10° SSE daylight
11 Feb - 04:54:37 10° SSW 05:03:18 19° SSE 05:09:39 10° ESE visible
11 Feb - 07:07:53 10° SW 07:17:38 36° SSE 07:23:36 10° ESE daylight
11 Feb - 09:23:40 10° WSW 09:30:52 44° S 09:35:26 10° ESE daylight
11 Feb - 11:39:04 10° WSW 11:43:05 24° SSW 11:46:24 10° SE daylight
12 Feb - 03:54:32 10° S 04:01:57 15° SSE 04:07:54 10° ESE visible
12 Feb - 06:05:51 10° SW 06:16:48 33° SSE 06:23:39 10° ESE visible
12 Feb - 08:21:39 10° WSW 08:30:34 46° S 08:35:54 10° ESE daylight
12 Feb - 10:37:37 10° W 10:43:13 34° SSW 10:47:10 10° SE daylight
13 Feb - 02:57:08 10° SSE 03:00:23 11° SE 03:03:21 10° SE visible
13 Feb - 05:04:00 10° SSW 05:15:40 29° SSE 05:23:21 10° ESE visible
13 Feb - 07:19:17 10° WSW 07:30:00 46° S 07:36:14 10° E daylight
13 Feb - 09:35:50 10° W 09:43:10 44° S 09:47:48 10° ESE daylight
13 Feb - 11:51:56 10° WSW 11:55:09 17° SSW 11:57:53 10° SSE daylight
14 Feb - 04:02:36 10° SSW 04:14:14 24° SSE 04:22:32 10° ESE visible
14 Feb - 06:16:47 10° SW 06:29:08 43° SSE 06:36:25 10° E visible
14 Feb - 08:33:37 10° WSW 08:42:52 51° S 08:48:19 10° ESE daylight
14 Feb - 10:50:05 10° W 10:55:20 27° SSW 10:59:09 10° SE daylight
15 Feb - 03:02:04 10° S 03:12:35 19° SSE 03:20:48 10° ESE visible
15 Feb - 05:14:20 10° SW 05:27:56 38° SSE 05:36:20 10° E visible
15 Feb - 07:31:01 10° WSW 07:42:18 53° S 07:48:43 10° ESE daylight
15 Feb - 09:48:04 10° W 09:55:22 39° SSW 10:00:00 10° SE daylight
15 Feb - 12:06:12 10° SW 12:07:02 10° SW 12:07:49 10° SSW daylight
